User: anonymous   Login
Location: Nitra
(0.0000°N, 18.0833°E)
Time: 17:36:13
(UTC+02:00)
Language:

Intercosmos 25 Rocket - Orbit

View from above orbital plane
View from above orbital plane
View from above satellite
View from above satellite

Ground track
Ground track

The orbit data is extracted from the following two-line orbital elements,

1 21820U 91086B   21104.23990596  .00000053  00000-0  10036-4 0  9990
2 21820  82.5692  14.2154 1574568 235.9289 108.2426 11.93573166273432
Epoch (UTC): 14 April 2021 05:45:27
Eccentricity: 0.1574568
inclination: 82.5692°
perigee height: 436 km
apogee height: 2983 km
right ascension of ascending node: 14.2154°
argument of perigee: 235.9289°
revolutions per day: 11.93573166
mean anomaly at epoch: 108.2426°
orbit number at epoch: 27343

The dashed part of the orbit path shows where the satellite is in the earth's shadow,  

DLR